Back to catalog

SCISAT 1

AliveScienceLEO
NORAD 27858·PAYLOAD·🇨🇦 Canada

Launched Aug 13, 2003 from Vandenberg Space Force Base

Loading…

Next Passes (next 24 hours)

TLE

FreshSource: Space-Track

Epoch: Sep 14, 2026, 13:32 UTC

1 27858U 03036A   26257.56452876  .00000437  00000-0  60370-4 0  9991
2 27858  73.9325 353.7460 0006656  27.0332 333.1189 14.81537836244687

Track SCISAT 1 in real time with AllMySat

Download on the App Store